User: anonymous   Login
Location: Brede
(50.9167°N, 0.6000°E)
Time: 18:34:29
(UTC+00:00)
Language:

CBERS-1 - Orbit

View from above orbital plane
View from above orbital plane
View from above satellite
View from above satellite

Ground track
Ground track

The orbit data is extracted from the following two-line orbital elements,

1 25940U 99057A   20297.84934985 +.00000010 +00000-0 +18957-4 0  9995
2 25940 098.6217 242.3705 0004671 340.7691 019.3318 14.35513990101519
Epoch (UTC): 23 October 2020 20:23:03
Eccentricity: 0.0004671
inclination: 98.6217°
perigee height: 770 km
apogee height: 777 km
right ascension of ascending node: 242.3705°
argument of perigee: 340.7691°
revolutions per day: 14.35513990
mean anomaly at epoch: 19.3318°
orbit number at epoch: 10151

The dashed part of the orbit path shows where the satellite is in the earth's shadow,  

DLR